Location: Prague
(50.0830°N, 14.4670°E)
Time: 09:31:33
(UTC+01:00)

STARLINK-1617 - Pass Details

Date: 25 January 2021
Orbit: 545 x 549 km, 53.1° (Epoch: 25 February)

Event Time Altitude Azimuth Distance (km) Brightness Sun altitude
Exits shadow 05:25:38 63° 346° (NNW) 615 3.7 -22.1°
Maximum altitude 05:25:40 63° 348° (NNW) 614 3.7 -22.1°
Drops below altitude 10° 05:29:46 10° 71° (ENE) 1,822 7.2 -21.5°
Sets 05:32:02 0° 75° (ENE) 2,716 8.4 -21.1°
